Hickam AFB, HI

12:06 PM HST on December 06, 2016 (GMT -1000)
Honolulu International

Weather History for PHNL - April, 2013

Change the Weather History Date:

Saturday, April 20, 2013

  Actual Average Record
Temperature  
Mean Temperature 77 °F 76 °F  
Max Temperature 82 °F 83 °F 88 °F (1986)
Min Temperature 71 °F 70 °F 60 °F (1966)
Degree Days  
Heating Degree Days 0 0  
Month to date heating degree days 0 0  
Since 1 July heating degree days 0 0  
Cooling Degree Days 12 11  
Month to date cooling degree days 210 220  
Year to date cooling degree days 965 995  
Growing Degree Days 26 (Base 50)    
Moisture  
Dew Point 68 °F    
Average Humidity 79    
Maximum Humidity 93    
Minimum Humidity 65    
Precipitation  
Precipitation 0.00 in 0.01 in 1.16 in (1978)
Month to date precipitation 0.78 0.48  
Year to date precipitation 6.80 6.80  
Snow  
Snow 0.00 in - - ()
Month to date snowfall 0.0  
Since 1 July snowfall 0.0  
Snow Depth 0.00 in    
Sea Level Pressure  
Sea Level Pressure 30.05 in    
Wind  
Wind Speed 6 mph (SSE)    
Max Wind Speed 13 mph    
Max Gust Speed 18 mph    
Visibility 10 miles    
Events      
T = Trace of Precipitation, MM = Missing Value Source: NWS Daily Summary

Daily Weather History Graph

Daily Weather History Graph

Search for Another Location

Airport or City:

Trip Planner

Search our weather history database for the weather conditions in past years. The results will help you decide how hot, cold, wet, or windy it might be!

Date:

Astronomy

Apr. 20, 2013 Rise Set
Actual Time 6:08 AM HST 6:52 PM HST
Civil Twilight 5:45 AM HST 7:15 PM HST
Nautical Twilight 5:18 AM HST 7:42 PM HST
Astronomical Twilight 4:51 AM HST 8:10 PM HST
Moon 2:23 PM HST (4/20) 2:25 AM HST (4/20)
Length of Visible Light 13h 30m
Length of Day
12h 44m
Waxing Gibbous, 73% of the Moon is Illuminated
Apr 20
Waxing Gibbous
Apr 25
Full
May 2
Last Quarter
May 9
New
May 17
First Quarter

Hourly Weather History & Observations

Time (HST) Temp. Heat Index Dew Point Humidity Pressure Visibility Wind Dir Wind Speed Gust Speed Precip Events Conditions
12:53 AM 73.9 °F - 66.9 °F 79% 30.08 in 10.0 mi North 3.5 mph - N/A   Mostly Cloudy
1:53 AM 73.9 °F - 68.0 °F 82% 30.06 in 10.0 mi NNW 3.5 mph - N/A   Scattered Clouds
2:53 AM 73.9 °F - 68.0 °F 82% 30.05 in 10.0 mi North 3.5 mph - N/A   Scattered Clouds
3:53 AM 72.0 °F - 68.0 °F 87% 30.04 in 10.0 mi North 3.5 mph - N/A   Scattered Clouds
4:53 AM 72.0 °F - 68.0 °F 87% 30.04 in 10.0 mi Calm Calm - N/A   Scattered Clouds
5:53 AM 72.0 °F - 68.0 °F 87% 30.06 in 10.0 mi North 3.5 mph - N/A   Scattered Clouds
6:53 AM 72.0 °F - 68.0 °F 87% 30.07 in 10.0 mi North 3.5 mph - N/A   Partly Cloudy
7:53 AM 75.9 °F - 68.0 °F 76% 30.08 in 10.0 mi Calm Calm - N/A   Partly Cloudy
8:53 AM 79.0 °F - 66.9 °F 66% 30.08 in 10.0 mi Variable 3.5 mph - N/A   Scattered Clouds
9:53 AM 79.0 °F - 69.1 °F 72% 30.09 in 10.0 mi SSW 6.9 mph - N/A   Scattered Clouds
10:53 AM 81.0 °F 83.8 °F 68.0 °F 65% 30.08 in 10.0 mi South 10.4 mph - N/A   Scattered Clouds
11:53 AM 81.0 °F 84.1 °F 69.1 °F 67% 30.07 in 10.0 mi SSE 12.7 mph - N/A   Scattered Clouds
12:53 PM 82.0 °F 85.5 °F 69.1 °F 65% 30.05 in 10.0 mi SSE 11.5 mph - N/A   Scattered Clouds
1:53 PM 81.0 °F 83.8 °F 68.0 °F 65% 30.03 in 10.0 mi South 8.1 mph - N/A   Scattered Clouds
2:53 PM 81.0 °F 84.1 °F 69.1 °F 67% 30.02 in 10.0 mi SSE 10.4 mph - N/A   Scattered Clouds
3:53 PM 81.0 °F 84.1 °F 69.1 °F 67% 30.02 in 10.0 mi South 9.2 mph - N/A   Scattered Clouds
4:53 PM 80.1 °F 82.7 °F 68.0 °F 67% 30.02 in 10.0 mi SSE 8.1 mph - N/A   Scattered Clouds
5:53 PM 78.1 °F - 68.0 °F 71% 30.02 in 10.0 mi South 6.9 mph - N/A   Scattered Clouds
6:53 PM 77.0 °F - 68.0 °F 74% 30.03 in 10.0 mi South 3.5 mph - N/A   Scattered Clouds
7:53 PM 77.0 °F - 69.1 °F 76% 30.05 in 10.0 mi Calm Calm - N/A   Partly Cloudy
8:53 PM 75.9 °F - 69.1 °F 79% 30.06 in 10.0 mi Calm Calm - N/A   Scattered Clouds
9:53 PM 75.9 °F - 69.1 °F 79% 30.07 in 10.0 mi Calm Calm - N/A   Partly Cloudy
10:53 PM 75.9 °F - 70.0 °F 82% 30.07 in 10.0 mi Calm Calm - N/A   Partly Cloudy
11:03 PM 75.2 °F - 69.8 °F 83% 30.07 in 10.0 mi Calm Calm - N/A   Mostly Cloudy
11:51 PM 73.4 °F - 69.8 °F 88% 30.05 in 10.0 mi Calm Calm - N/A   Mostly Cloudy
11:53 PM 73.9 °F - 69.1 °F 85% 30.05 in 10.0 mi Calm Calm - N/A   Mostly Cloudy